User: anonymous   Login
Location: Unspecified
(0.0000°N, 0.0000°E)
Time: 15:31:51
(UTC+00:00)
Language:

SCD-1 - Orbit

View from above orbital plane
View from above orbital plane
View from above satellite
View from above satellite

Ground track
Ground track

The orbit data is extracted from the following two-line orbital elements,

1 22490U 93009B   18116.21023899  .00000248  00000-0  18362-4 0  9997
2 22490  24.9686 176.1111 0043225  39.5788 356.4831 14.44520883330913
Epoch (UTC): 26 April 2018 05:02:44
Eccentricity: 0.0043225
inclination: 24.9686°
perigee height: 713 km
apogee height: 774 km
right ascension of ascending node: 176.1111°
argument of perigee: 39.5788°
revolutions per day: 14.44520883
mean anomaly at epoch: 356.4831°
orbit number at epoch: 33091

The dashed part of the orbit path shows where the satellite is in the earth's shadow,  

DLR